ONEWEB-0319 (49105 NORAD) Tracking and Keplerian Element Data

This shows tracking and keplerian element data for the satellite.

Feedback or suggestion? Click here.




ElementValue
Catalog49105
NameONEWEB-0319
Epoch Orbit561
Epoch Day262.16668981
Epoch Year2021
RAAN356.4349
Inclination87.4226
Eccentricity0.0021605
Argument of Perigee188.634
Mean Anonmoly21.2083
Mean Motion15.15655276
Decay Rate-0.00881622
L11 49105U 21075AG 21262.16668981 -.00881622 00000-0 -49595-1 0 9994
L22 49105 87.4226 356.4349 0021605 188.6340 21.2083 15.15655276 5619

Live tracking and technical data element details for ONEWEB-0319 (NORAD 49105). ONEWEB-0319 can be tracked NOW for your location showing map with azimuth and elevation plus other details from your city location.

Track the satellite on the map from your city or location and see movement details for azimuth, elevation, latitude, longitude, range, height, and movement on the map or in text.







IsCatalogInMostPopularTable: catalog: 49105, numindb: 6
Update: records affected: 1



GetName: 49105 ONEWEB-0319

Hit Count: updated at: Fri, 24 Sep 2021 18:33:45 GMT